Regional Weather Roundup
Issued by NWS

Home | Current Version | Previous Version | Graphics & Text | Print | Product List | Glossary On
Versions: 1 2 3 4 5 6 7 8 9 10 11 12 13 14 15 16 17 18 19 20 21 22 23 24 25 26 27 28 29 30 31 32 33 34 35 36 37 38 39 40 41 42 43 44 45 46 47 48 49 50
000
ASUS43 KDMX 270907
RWRIA

WEATHER ROUNDUP FOR IOWA
NATIONAL WEATHER SERVICE DES MOINES IA
300 AM CST SAT DEC 27 2014

NOTE: "FAIR" INDICATES FEW OR NO CLOUDS BELOW 12,000 FEET WITH NO
SIGNIFICANT WEATHER AND/OR OBSTRUCTIONS TO VISIBILITY.

* - THESE STATIONS ARE NOT NWS STATIONS...THUS NOT UNDER NWS
QUALITY CONTROL.  THEY ALSO DO NOT REPORT WEATHER SUCH
AS PRECIPITATION OR FOG.

IAZ001>003-012>014-020>022-031>034-043>046-271000-
   NORTHWEST IOWA

CITY           SKY/WX    TMP DP  RH WIND       PRES   REMARKS
CARROLL *      CLOUDY    28  27  93 NW16      30.01R WCI  17
CHEROKEE *     LGT SNOW  25  25 100 N12       30.05R WCI  14
DENISON *      CLOUDY    27  25  93 NW12      30.03R WCI  16
LE MARS *      LGT SNOW  25  23  93 NW13      30.10R WCI  13
ORANGE CITY *  LGT SNOW  25  19  80 N13G18    30.07R WCI  13
SHELDON *      MIX PCPN  23  21  93 N15       30.05R WCI  10
SIOUX CITY     CLOUDY    24  21  88 NW16      30.11R WCI  11
SPENCER        LGT SNOW  25  21  85 N17       30.03R FOG     WCI  12
STORM LAKE *   MIX PCPN  25  23  93 NW15      30.03R WCI  12
$$

IAZ055>058-069>071-079>083-090>094-271000-
   SOUTHWEST IOWA

CITY           SKY/WX    TMP DP  RH WIND       PRES   REMARKS
ATLANTIC *     CLOUDY    30  28  93 NW14      30.04R WCI  20
AUDUBON *      CLEAR     28  25  86 NW9       30.02R WCI  20
CLARINDA *     CLOUDY    34  32  93 W17       30.07R WCI  23
COUNCIL BLFS * MIX PCPN  27  27 100 NW15G21   30.06R WCI  15
CRESTON *      CLOUDY    32  32 100 W14       30.00R FOG     WCI  22
HARLAN  *      CLOUDY    28  28 100 NW14      30.08R WCI  17
LAMONI         CLOUDY    33  32  96 W16       30.00R WCI  23
RED OAK *      CLOUDY    30  30 100 NW10G18   30.07R WCI  21
SHENANDOAH *   CLOUDY    32  30  93 NW8       30.07S FOG     WCI  25
$$

IAZ047>049-059>061-072>074-084-271000-
   CENTRAL IOWA

CITY           SKY/WX    TMP DP  RH WIND       PRES   REMARKS
AMES           CLOUDY    33  30  88 W13       29.97R WCI  24
ANKENY *       CLOUDY    34  34 100 W10       29.97R FOG     WCI  26
CHARITON *     LGT SNOW  34  34 100 W10       29.98R WCI  26
DES MOINES     LGT SNOW  34  32  92 W12       29.99R FOG     WCI  25
GRINNELL*      RAIN      34  34 100 W8        29.94R WCI  27
KNOXVILLE *    LGT RAIN  34  32  93 W13       29.95R WCI  25
MARSHALLTOWN   LGT SNOW  32  32 100 SW8       29.92R FOG     WCI  25
PELLA *        RAIN      34  34 100 W10       29.96S WCI  26
PERRY *        CLOUDY    32  32 100 NW9       30.00R FOG     WCI  24
$$

IAZ004>006-015-016-023>025-035-036-271000-
   NORTH CENTRAL IOWA

CITY           SKY/WX    TMP DP  RH WIND       PRES   REMARKS
ALGONA *       LGT SNOW  27  27 100 N14G22    29.99R VSB 1   WCI  15
CLARION *      LGT SNOW  30  30 100 NW17      29.96R WCI  18
ESTHERVILLE    LGT SNOW  24  22  91 N17       30.01R VSB 1   WCI  11
FORT DODGE *   CLOUDY    28  25  86 NW10      29.98R WCI  19
MASON CITY     LGT SNOW  29  28  96 N13       29.93R FOG     WCI  19
FOREST CITY *  LGT SNOW  30  28  93 NW12      29.94R WCI  21
IOWA FALLS *   LGT SNOW  32  32 100 W9        29.93R WCI  24
$$

IAZ007>011-017>019-026>030-037>042-050>054-066-271000-
   NORTHEAST IOWA

CITY           SKY/WX    TMP DP  RH WIND       PRES   REMARKS
CEDAR RAPIDS   LGT RAIN  38  38 100 W8        29.91R FOG     WCI  32
CHARLES CITY * LGT SNOW  32  32 100 CALM      29.89F
CLINTON *      MOCLDY    46  43  87 S9        29.92F
DECORAH *      CLOUDY    32  32 100 CALM      29.87F FOG
DUBUQUE        CLOUDY    39  37  92 SE10      29.86F WCI  32
MONTICELLO *   CLOUDY    39  39 100 CALM      29.89F FOG
OELWEIN *      LGT RAIN  34  34 100 E6        29.89F WCI  29
WATERLOO       LGT RAIN  34  34 100 SW3       29.90F FOG
$$

IAZ064-065-067-068-078-271000-
   EAST CENTRAL IOWA

CITY           SKY/WX    TMP DP  RH WIND       PRES   REMARKS
DAVENPORT      CLOUDY    47  43  86 S14       29.90F
IOWA CITY      CLOUDY    41  40  96 CALM      29.93S
MT. PLEASANT * CLOUDY    43  43 100 S5        29.93S FOG
MUSCATINE *    CLOUDY    45  43  93 S7        29.93R
QUAD CITIES    CLOUDY    49  45  86 S10       29.91F
$$

IAZ062-063-075>077-085>089-095>099-271000-
   SOUTHEAST IOWA

CITY           SKY/WX    TMP DP  RH WIND       PRES   REMARKS
BURLINGTON     CLOUDY    51  48  89 SW15      29.94R
FAIRFIELD *    CLOUDY    39  39 100 CALM      29.92F FOG
FORT MADISON * CLOUDY    52  48  87 S9        29.94S
KEOKUK *       CLOUDY    50  48  93 S15       29.93S
OSKALOOSA *    LGT RAIN  36  34  93 W13       29.94F WCI  27
CENTERVILLE *  CLOUDY    36  36 100 W8        29.99R WCI  29
OTTUMWA        CLOUDY    36  35  96 W12       29.93S FOG     WCI  28
WASHINGTON *   CLOUDY    41  41 100 SW3       29.91F
$$

ABBREVIATIONS USED IN REMARKS
   TC - TEMPERATURES IN CELSIUS
  WCI - WIND CHILL INDEX
   HX - HEAT INDEX
  VSB - VISIBILITY
$$




USA.gov is the U.S. government's official web portal to all federal, state and local government web resources and services.